Вернуться в каталог

QIANFAN-22

АктивенСвязьPO
NORAD 61555·PAYLOAD·🇨🇳 China

Запущен Oct 15, 2024 с Taiyuan Satellite Launch Center

Loading…

Ближайшие Пролёты (ближайшие 24 часа)

TLE

СвежийSource: Space-Track

Эпоха: Sep 14, 2026, 13:43 UTC

1 61555U 24185D   26257.57166916  .00000230  00000-0  18700-3 0  9999
2 61555  88.9822  49.0268 0005150 216.3664 143.7158 13.86428408107156

Отслеживайте QIANFAN-22 в реальном времени с AllMySat

Download on the App Store